Regional Weather Roundup
Issued by NWS Green Bay, WI

Home | Current Version | Previous Version | Text Only | Print | Product List | Glossary On
Versions: 1 2 3 4 5 6 7 8 9 10 11 12 13 14 15 16 17 18 19 20 21 22 23 24 25 26 27 28 29 30 31 32 33 34 35 36 37 38 39 40 41 42 43 44 45 46 47 48 49 50
000
ASUS43 KGRB 190711
RWRGRB

NORTH-CENTRAL AND NORTHEAST WISCONSIN REGIONAL WEATHER ROUNDUP
NATIONAL WEATHER SERVICE GREEN BAY WI
200 AM CDT TUE SEP 19 2017

WIZ005-009-010>012-018-019-190800-
NORTH CENTRAL WISCONSIN

CITY           SKY/WX    TMP DP  RH WIND       PRES   REMARKS
IRONWOOD       CLOUDY    57  52  83 CALM      30.02F
MANITOWISH WTR CLOUDY    55  55 100 SE5       30.03F
ARBOR VITAE    CLOUDY    57  55  92 SE6       30.03F
EAGLE RIVER    CLOUDY    55  52  92 SE6       30.03F
LAND O LAKES   CLOUDY    53  52  95 CALM      30.05F
RHINELANDER    CLOUDY    55  54  96 SE7       30.04F
PHILLIPS       CLOUDY    55  55 100 SE5       30.01F
ANTIGO         CLOUDY    54  52  94 E6        30.05S
TOMAHAWK         N/A     55  53  94 CALM      30.04S
MERRILL          N/A     55  55 100 E3        30.04S
$$

WIZ013-073-190800-
NORTHEAST WISCONSIN

CITY           SKY/WX    TMP DP  RH WIND       PRES   REMARKS
IRON MOUNTAIN  CLOUDY    57  51  80 SE3       30.05F
MARINETTE      CLOUDY    57  53  86 N7        30.06S
OCONTO         CLOUDY    57  53  86 NE8       30.04S
$$

WIZ017-030-035>037-045-190800-
CENTRAL WISCONSIN

CITY           SKY/WX    TMP DP  RH WIND       PRES   REMARKS
MEDFORD        CLOUDY    55  54  95 E6        30.01S
WAUSAU         CLOUDY    56  54  93 E6        30.01F
MOSINEE        CLOUDY    54  54 100 E5        30.03S
MARSHFIELD     MOCLDY    56  53  90 E5        30.00S
WISC RAPIDS    CLOUDY    58  53  84 E3        30.02S
STEVENS POINT  CLOUDY    55  50  83 E6        30.02S
WAUPACA        CLOUDY    58  54  85 NE5       30.01F
SHAWANO        CLOUDY    61  55  80 E7        30.03S
CLINTONVILLE   CLOUDY    57  52  82 NE5       30.03S
WAUTOMA        MOCLDY    58  54  86 NE3       30.01S
$$

WIZ038-039-048-051-190800-
FOX VALLEY

CITY           SKY/WX    TMP DP  RH WIND       PRES   REMARKS
NWS GREEN BAY  CLOUDY    58  57  97 NE8       30.02F
APPLETON       MOCLDY    57  50  77 N6        30.01S
OSHKOSH        CLOUDY    62  57  83 E5        30.00S
FOND DU LAC    CLOUDY    61  53  75 NE3       30.00F
$$

WIZ022-050-052-190800-
EAST CENTRAL WISCONSIN

CITY           SKY/WX    TMP DP  RH WIND       PRES   REMARKS
EPHRAIM        FAIR      59  55  85 N5        30.04S
WASHINGTON ISL CLOUDY    58  55  91 N3        30.05S
STURGEON BAY   CLOUDY    59  56  89 N7        30.04S
MANITOWOC      CLOUDY    58  56  93 CALM      30.01F
SHEBOYGAN      CLOUDY    59  58  96 CALM      30.00S
$$

LMZ563-521-522-541>543-190800-
LAKESHORE

STATION/POSITION TIME  TEMP    WIND        PRES    VSBY  WAVE
                       AIR SEA DIR/SP/G                  HT/PER
                 (UTC) (F)     (DEG/KT/KT) (MB)    (MI)  (FT/S)
SHEBOYGAN LKSHOR 0700   62     330/  7/  8 1015.7R
KEWAUNEE LKSHORE 0642          360/  1/  3 1015.7R
NORTHPORT PIER   0640   65      80/  9/ 11 1017.3S
N MID LAKE BUOY  0650   64 64  100/ 12/ 14 1017.8R         2/ 4
S GREEN BAY BUOY 0700   64 66   30/ 10/ 12 1016.8
SISTER BAY LKSHO 0704   62      10/  7/  8   N/A
MENOMINEE LKSHOR 0642          330/ 10/ 10 1017.1S
$$




USA.gov is the U.S. government's official web portal to all federal, state and local government web resources and services.